Flag for U.S.A. Weather past 2 weeks in Cheyenne, Wyoming, U.S.A.

Now
78 °F

Broken clouds.


Feels Like: 78 °F
Forecast: 58 / 79 °F
Wind: 8 mph from West

Location: Cheyenne Airport

Current Time: Aug 21, 2014 at 4:38:56 PM

Latest Report: Aug 21, 2014 at 3:53 PM


Visibility: 10 mi

Pressure: 29.88 "Hg

Humidity: 25%

Dew point: 40 °F

Location of CheyenneLocation

Historic Weather in Cheyenne — Graph

°F

Cheyenne temperature yesterday

Maximum temperature yesterday: 83 °F (at 2:53 PM)
Minimum temperature yesterday: 60 °F (at 12:53 AM)
Average temperature yesterday: 70 °F

Past Weeks' High & Low Weather Summary

 TemperatureHumidityPressure
High88 °F (Aug 17, 4:53 PM)90% (Aug 7, 1:53 AM)30.27 "Hg (Aug 7, 1:53 AM)
Low51 °F (Aug 8, 5:53 AM)10% (Aug 17, 2:00 PM)29.68 "Hg (Aug 19, 11:53 PM)
Average69 °F47%29.93 "Hg
* Reported Aug 6 2:53 PM — Aug 21 2:53 PM, Cheyenne, Weather by CustomWeather, © 2014

Note: Actual official high and low records may vary slightly from our data, if they occured in-between our weather recording intervals... More about our weather records

Advertising

Cheyenne weather history for previous 24 hours

 ConditionsComfort  
Time TempWeatherWind HumidityBarometerVisibility
2:53 PM
Aug 21
78 °FMostly cloudy.8 mph25%29.88 "Hg10 mi
1:53 PM80 °FSunny.12 mph27%29.88 "Hg10 mi
12:53 PM80 °FSunny.18 mph24%29.88 "Hg10 mi
11:53 AM79 °FSunny.10 mph27%29.88 "Hg10 mi
10:53 AM77 °FSunny.14 mph30%29.88 "Hg10 mi
9:53 AM73 °FSunny.10 mph36%29.88 "Hg10 mi
8:53 AM69 °FSunny.14 mph42%29.88 "Hg10 mi
7:53 AM65 °FSunny.12 mph49%29.88 "Hg10 mi
6:53 AM59 °FClear.14 mph58%29.89 "Hg10 mi
5:53 AM58 °FClear.15 mph62%29.87 "Hg10 mi
4:53 AM56 °FClear.8 mph65%29.87 "Hg10 mi
3:53 AM59 °FClear.9 mph56%29.82 "Hg10 mi
2:53 AM58 °FClear.9 mph60%29.81 "Hg10 mi
1:53 AM60 °FClear.21 mph58%29.80 "Hg10 mi
12:53 AM62 °FClear.15 mph54%29.80 "Hg10 mi
11:53 PM
Aug 20
63 °FClear.21 mph54%29.80 "Hg10 mi
10:53 PM66 °FPassing clouds.10 mph49%29.79 "Hg10 mi
9:53 PM67 °FOvercast.No wind49%29.78 "Hg10 mi
8:53 PM68 °FPassing clouds.5 mph45%29.77 "Hg10 mi
7:53 PM70 °FPassing clouds.9 mph41%29.76 "Hg10 mi
6:53 PM72 °FBroken clouds.9 mph41%29.76 "Hg10 mi
5:53 PM73 °FScattered clouds.18 mph37%29.76 "Hg10 mi
4:53 PM72 °FLight rain. Broken clouds.6 mph48%29.74 "Hg9 mi
Weather by CustomWeather, © 2014

See weather overviewHow to use our weather pages